Powrót do katalogu

MOLNIYA 1-69

LostŁącznośćHEO
NORAD 17078·PAYLOAD·🇷🇺 Russia

Wystrzelony Nov 15, 1986 z Plesetsk Cosmodrome

Loading…

Następne Przeloty (najbliższe 24 godziny)

TLE

NieaktualneSource: Space-Track

Epoka: Apr 16, 2026, 15:50 UTC

1 17078U 86089A   26106.66017765 -.00001812  00000-0 -44311-2 0  9996
2 17078  63.4974  20.1387 7348471 252.8245  21.0226  2.00905937288906

Śledź MOLNIYA 1-69 w czasie rzeczywistym z AllMySat

Download on the App Store